Weather History for KCMX - August, 2013

Change the Weather History Date:

Friday, August 16, 2013

  Actual Average Record
Temperature  
Mean Temperature 66 °F -  
Max Temperature 79 °F 75 °F 87 °F (1990)
Min Temperature 55 °F 56 °F 42 °F (1954)
Cooling Degree Days 2    
Growing Degree Days 16 (Base 50)    
Moisture  
Dew Point 51 °F    
Average Humidity 60    
Maximum Humidity 87    
Minimum Humidity 36    
Precipitation  
Precipitation 0.00 in - - ()
Sea Level Pressure  
Sea Level Pressure 30.13 in    
Wind  
Wind Speed 8 mph (WNW)    
Max Wind Speed 12 mph    
Max Gust Speed -    
Visibility 10 miles    
Events      
Averages and records for this station are not official NWS values.
T = Trace of Precipitation, MM = Missing Value Source: NWS Daily Summary

Daily Weather History Graph

Daily Weather History Graph

Search for Another Location

Airport or City:

Trip Planner

Search our weather history database for the weather conditions in past years. The results will help you decide how hot, cold, wet, or windy it might be!

Date:

Astronomy

Aug. 16, 2013 Rise Set
Actual Time 6:52 AM EDT 9:02 PM EDT
Civil Twilight 6:19 AM EDT 9:36 PM EDT
Nautical Twilight 5:37 AM EDT 10:17 PM EDT
Astronomical Twilight 4:50 AM EDT 11:03 PM EDT
Moon 5:29 PM EDT (8/16) 1:47 AM EDT (8/16)
Length of Visible Light 15h 17m
Length of Day
14h 10m
Waxing Gibbous, 74% of the Moon is Illuminated
Aug 16
Waxing Gibbous
Aug 20
Full
Aug 28
Last Quarter
Sep 5
New
Sep 12
First Quarter

Hourly Weather History & Observations

Time (EDT) Temp. Dew Point Humidity Pressure Visibility Wind Dir Wind Speed Gust Speed Precip Events Conditions
1:53 AM 57.9 °F 46.9 °F 67% 30.09 in 10.0 mi NW 8.1 mph - N/A   Clear
2:53 AM 57.0 °F 46.9 °F 69% 30.09 in 10.0 mi NW 8.1 mph - N/A   Clear
3:53 AM 55.0 °F 46.9 °F 74% 30.09 in 10.0 mi WNW 5.8 mph - N/A   Clear
4:53 AM 57.9 °F 48.9 °F 72% 30.09 in 10.0 mi NW 6.9 mph - N/A   Overcast
5:53 AM 61.0 °F 48.0 °F 62% 30.09 in 10.0 mi WNW 11.5 mph - N/A   Clear
6:53 AM 59.0 °F 48.9 °F 69% 30.10 in 10.0 mi WNW 10.4 mph - N/A   Clear
7:53 AM 59.0 °F 50.0 °F 72% 30.11 in 10.0 mi WNW 9.2 mph - N/A   Clear
8:53 AM 64.0 °F 52.0 °F 65% 30.13 in 10.0 mi WNW 8.1 mph - N/A   Clear
9:53 AM 68.0 °F 53.1 °F 59% 30.14 in 10.0 mi WNW 10.4 mph - N/A   Clear
10:53 AM 71.1 °F 55.0 °F 57% 30.15 in 10.0 mi West 8.1 mph - N/A   Clear
11:53 AM 73.0 °F 55.9 °F 55% 30.15 in 10.0 mi WNW 6.9 mph - N/A   Clear
12:53 PM 75.0 °F 52.0 °F 44% 30.15 in 10.0 mi West 5.8 mph - N/A   Clear
1:53 PM 77.0 °F 48.9 °F 37% 30.14 in 10.0 mi West 8.1 mph - N/A   Clear
2:53 PM 78.1 °F 51.1 °F 39% 30.14 in 10.0 mi West 8.1 mph - N/A   Clear
3:53 PM 78.1 °F 48.9 °F 36% 30.13 in 10.0 mi West 9.2 mph - N/A   Clear
4:53 PM 77.0 °F 53.1 °F 43% 30.13 in 10.0 mi NW 10.4 mph - N/A   Clear
5:53 PM 75.9 °F 48.9 °F 38% 30.13 in 10.0 mi West 10.4 mph - N/A   Clear
6:53 PM 75.0 °F 48.9 °F 40% 30.14 in 10.0 mi West 6.9 mph - N/A   Clear
7:53 PM 73.9 °F 51.1 °F 45% 30.13 in 10.0 mi South 3.5 mph - N/A   Clear
8:53 PM 64.9 °F 57.0 °F 75% 30.14 in 10.0 mi East 3.5 mph - N/A   Clear
9:53 PM 61.0 °F 55.0 °F 81% 30.14 in 10.0 mi Calm Calm - N/A   Clear
10:53 PM 55.9 °F 52.0 °F 87% 30.14 in 10.0 mi Calm Calm - N/A   Clear
11:53 PM 55.0 °F 51.1 °F 86% 30.15 in 10.0 mi Calm Calm - N/A   Clear